Time,TemperatureF,DewpointF,PressureIn,WindDirection,WindDirectionDegrees,WindSpeedMPH,WindSpeedGustMPH,Humidity,HourlyPrecipIn,Conditions,Clouds,dailyrainin,SolarRadiationWatts/m^2,SoftwareType,DateUTC
2013-04-27 00:32:00,54.0,26.0,-100.00,SSE,165,4.0,7.0,33,-99.99,,,0.00,0.000000,,2013-04-27 07:32:00,
2013-04-27 00:42:00,54.0,26.0,-100.00,SSE,165,4.0,7.0,33,-99.99,,,0.00,0.000000,,2013-04-27 07:42:00,
2013-04-27 00:52:00,54.0,26.0,-100.00,SSE,165,4.0,7.0,33,-99.99,,,0.00,0.000000,,2013-04-27 07:52:00,
2013-04-27 01:01:00,54.0,26.0,-100.00,SSE,165,4.0,7.0,33,-99.99,,,0.00,0.000000,,2013-04-27 08:01:00,
2013-04-27 01:11:00,54.0,26.0,-100.00,SSE,165,4.0,7.0,33,-99.99,,,0.00,0.000000,,2013-04-27 08:11:00,
2013-04-27 01:33:00,51.0,21.0,-100.00,SSE,158,5.0,7.0,31,0.00,,,0.00,0.000000,,2013-04-27 08:33:00,
2013-04-27 01:42:00,51.0,21.0,-100.00,SSE,158,5.0,7.0,31,0.00,,,0.00,0.000000,,2013-04-27 08:42:00,
2013-04-27 01:52:00,51.0,21.0,-100.00,SSE,158,5.0,7.0,31,0.00,,,0.00,0.000000,,2013-04-27 08:52:00,
2013-04-27 02:01:00,51.0,21.0,-100.00,SSE,158,5.0,7.0,31,0.00,,,0.00,0.000000,,2013-04-27 09:01:00,
2013-04-27 02:11:00,51.0,21.0,-100.00,SSE,158,5.0,7.0,31,0.00,,,0.00,0.000000,,2013-04-27 09:11:00,
2013-04-27 02:33:00,49.0,26.0,-100.00,SE,133,6.0,8.0,41,0.00,,,0.00,0.000000,,2013-04-27 09:33:00,
2013-04-27 02:43:00,49.0,26.0,-100.00,SE,133,6.0,8.0,41,0.00,,,0.00,0.000000,,2013-04-27 09:43:00,
2013-04-27 02:53:00,49.0,26.0,-100.00,SE,133,6.0,8.0,41,0.00,,,0.00,0.000000,,2013-04-27 09:53:00,
2013-04-27 03:02:00,49.0,26.0,-100.00,SE,133,6.0,8.0,41,0.00,,,0.00,0.000000,,2013-04-27 10:02:00,
2013-04-27 03:12:00,49.0,26.0,-100.00,SE,133,6.0,8.0,41,0.00,,,0.00,0.000000,,2013-04-27 10:12:00,
2013-04-27 03:33:00,51.0,24.0,-100.00,South,171,6.0,9.0,34,0.00,,,0.00,0.000000,,2013-04-27 10:33:00,
2013-04-27 03:42:00,51.0,24.0,-100.00,South,171,6.0,9.0,34,0.00,,,0.00,0.000000,,2013-04-27 10:42:00,
2013-04-27 03:52:00,51.0,24.0,-100.00,South,171,6.0,9.0,34,0.00,,,0.00,0.000000,,2013-04-27 10:52:00,
2013-04-27 04:02:00,51.0,24.0,-100.00,South,171,6.0,9.0,34,0.00,,,0.00,0.000000,,2013-04-27 11:02:00,
2013-04-27 04:11:00,51.0,24.0,-100.00,South,171,6.0,9.0,34,0.00,,,0.00,0.000000,,2013-04-27 11:11:00,
2013-04-27 04:42:00,50.0,21.0,-100.00,South,169,6.0,9.0,31,0.00,,,-99.99,0.000000,,2013-04-27 11:42:00,
2013-04-27 04:52:00,50.0,21.0,-100.00,South,169,6.0,9.0,31,0.00,,,-99.99,0.000000,,2013-04-27 11:52:00,
2013-04-27 05:01:00,50.0,21.0,-100.00,South,169,6.0,9.0,31,0.00,,,-99.99,0.000000,,2013-04-27 12:01:00,
2013-04-27 05:32:00,50.0,20.0,-100.00,South,183,6.0,13.0,30,0.00,,,0.00,0.000000,,2013-04-27 12:32:00,
2013-04-27 05:42:00,50.0,20.0,-100.00,South,183,6.0,13.0,30,0.00,,,0.00,0.000000,,2013-04-27 12:42:00,
2013-04-27 05:52:00,50.0,20.0,-100.00,South,183,6.0,13.0,30,0.00,,,0.00,0.000000,,2013-04-27 12:52:00,
2013-04-27 06:01:00,50.0,20.0,-100.00,South,183,6.0,13.0,30,0.00,,,0.00,0.000000,,2013-04-27 13:01:00,
2013-04-27 06:11:00,50.0,20.0,-100.00,South,183,6.0,13.0,30,0.00,,,0.00,0.000000,,2013-04-27 13:11:00,
2013-04-27 06:42:00,48.0,22.0,-100.00,SE,144,7.0,10.0,35,0.00,,,0.00,2.000000,,2013-04-27 13:42:00,
2013-04-27 06:52:00,48.0,22.0,-100.00,SE,144,7.0,10.0,35,0.00,,,0.00,2.000000,,2013-04-27 13:52:00,
2013-04-27 07:02:00,48.0,22.0,-100.00,SE,144,7.0,10.0,35,0.00,,,0.00,2.000000,,2013-04-27 14:02:00,
2013-04-27 07:11:00,48.0,22.0,-100.00,SE,144,7.0,10.0,35,0.00,,,0.00,2.000000,,2013-04-27 14:11:00,
2013-04-27 07:42:00,51.0,29.0,-100.00,SSE,156,5.0,11.0,42,0.00,,,0.00,86.000000,,2013-04-27 14:42:00,
2013-04-27 07:52:00,51.0,29.0,-100.00,SSE,156,5.0,11.0,42,0.00,,,0.00,86.000000,,2013-04-27 14:52:00,
2013-04-27 08:01:00,51.0,29.0,-100.00,SSE,156,5.0,11.0,42,0.00,,,0.00,86.000000,,2013-04-27 15:01:00,
2013-04-27 08:11:00,51.0,29.0,-100.00,SSE,156,5.0,11.0,42,0.00,,,0.00,86.000000,,2013-04-27 15:11:00,
2013-04-27 08:33:00,55.0,29.0,-100.00,South,175,10.0,16.0,36,0.00,,,0.00,204.000000,,2013-04-27 15:33:00,
2013-04-27 08:43:00,55.0,29.0,-100.00,South,175,10.0,16.0,36,0.00,,,0.00,204.000000,,2013-04-27 15:43:00,
2013-04-27 08:53:00,55.0,29.0,-100.00,South,175,10.0,16.0,36,0.00,,,0.00,204.000000,,2013-04-27 15:53:00,
2013-04-27 09:02:00,55.0,29.0,-100.00,South,175,10.0,16.0,36,0.00,,,0.00,204.000000,,2013-04-27 16:02:00,
2013-04-27 09:13:00,55.0,29.0,-100.00,South,175,10.0,16.0,36,0.00,,,0.00,204.000000,,2013-04-27 16:13:00,
2013-04-27 09:42:00,60.0,28.0,-100.00,South,185,12.0,18.0,29,0.00,,,-99.99,466.000000,,2013-04-27 16:42:00,
2013-04-27 09:53:00,60.0,28.0,-100.00,South,185,12.0,18.0,29,0.00,,,-99.99,466.000000,,2013-04-27 16:53:00,
2013-04-27 10:02:00,60.0,28.0,-100.00,South,185,12.0,18.0,29,0.00,,,-99.99,466.000000,,2013-04-27 17:02:00,
2013-04-27 10:11:00,60.0,28.0,-100.00,South,185,12.0,18.0,29,0.00,,,-99.99,466.000000,,2013-04-27 17:11:00,
2013-04-27 10:32:00,63.0,29.0,-100.00,SSW,213,8.0,16.0,27,0.00,,,0.00,642.000000,,2013-04-27 17:32:00,
2013-04-27 10:42:00,63.0,29.0,-100.00,SSW,213,8.0,16.0,27,0.00,,,0.00,642.000000,,2013-04-27 17:42:00,
2013-04-27 10:53:00,63.0,29.0,-100.00,SSW,213,8.0,16.0,27,0.00,,,0.00,642.000000,,2013-04-27 17:53:00,
2013-04-27 11:02:00,63.0,29.0,-100.00,SSW,213,8.0,16.0,27,0.00,,,0.00,642.000000,,2013-04-27 18:02:00,
2013-04-27 11:11:00,63.0,29.0,-100.00,SSW,213,8.0,16.0,27,0.00,,,0.00,642.000000,,2013-04-27 18:11:00,
2013-04-27 11:32:00,63.0,20.0,-100.00,SW,222,16.0,24.0,19,0.00,,,0.00,744.000000,,2013-04-27 18:32:00,
2013-04-27 12:42:00,64.0,22.0,-100.00,SW,225,12.0,22.0,20,0.00,,,0.00,566.000000,,2013-04-27 19:42:00,
2013-04-27 12:53:00,64.0,22.0,-100.00,SW,225,12.0,22.0,20,0.00,,,0.00,566.000000,,2013-04-27 19:53:00,
2013-04-27 13:02:00,64.0,22.0,-100.00,SW,225,12.0,22.0,20,0.00,,,0.00,566.000000,,2013-04-27 20:02:00,
2013-04-27 13:11:00,64.0,22.0,-100.00,SW,225,12.0,22.0,20,0.00,,,0.00,566.000000,,2013-04-27 20:11:00,
2013-04-27 13:42:00,68.0,30.0,-100.00,SW,234,13.0,23.0,24,0.00,,,0.00,807.000000,,2013-04-27 20:42:00,
2013-04-27 13:52:00,68.0,30.0,-100.00,SW,234,13.0,23.0,24,0.00,,,0.00,807.000000,,2013-04-27 20:52:00,
2013-04-27 14:02:00,68.0,30.0,-100.00,SW,234,13.0,23.0,24,0.00,,,0.00,807.000000,,2013-04-27 21:02:00,
2013-04-27 14:11:00,68.0,30.0,-100.00,SW,234,13.0,23.0,24,0.00,,,0.00,807.000000,,2013-04-27 21:11:00,
2013-04-27 14:43:00,68.0,24.0,-100.00,WSW,238,15.0,29.0,19,0.00,,,0.00,1056.000000,,2013-04-27 21:43:00,
2013-04-27 14:53:00,68.0,24.0,-100.00,WSW,238,15.0,29.0,19,0.00,,,0.00,1056.000000,,2013-04-27 21:53:00,
2013-04-27 15:02:00,68.0,24.0,-100.00,WSW,238,15.0,29.0,19,0.00,,,0.00,1056.000000,,2013-04-27 22:02:00,
2013-04-27 15:12:00,68.0,24.0,-100.00,WSW,238,15.0,29.0,19,0.00,,,0.00,1056.000000,,2013-04-27 22:12:00,
2013-04-27 15:42:00,67.0,25.0,-100.00,SSW,213,16.0,26.0,20,0.00,,,0.00,963.000000,,2013-04-27 22:42:00,
2013-04-27 15:52:00,67.0,25.0,-100.00,SSW,213,16.0,26.0,20,0.00,,,0.00,963.000000,,2013-04-27 22:52:00,
2013-04-27 16:02:00,67.0,25.0,-100.00,SSW,213,16.0,26.0,20,0.00,,,0.00,963.000000,,2013-04-27 23:02:00,
2013-04-27 16:11:00,67.0,25.0,-100.00,SSW,213,16.0,26.0,20,0.00,,,0.00,963.000000,,2013-04-27 23:11:00,
2013-04-27 16:32:00,67.0,27.0,-100.00,SW,216,14.0,24.0,22,0.00,,,0.00,765.000000,,2013-04-27 23:32:00,
2013-04-27 16:42:00,67.0,27.0,-100.00,SW,216,14.0,24.0,22,0.00,,,0.00,765.000000,,2013-04-27 23:42:00,
2013-04-27 16:52:00,67.0,27.0,-100.00,SW,216,14.0,24.0,22,0.00,,,0.00,765.000000,,2013-04-27 23:52:00,
2013-04-27 17:01:00,67.0,27.0,-100.00,SW,216,14.0,24.0,22,0.00,,,0.00,765.000000,,2013-04-28 00:01:00,
2013-04-27 17:11:00,67.0,27.0,-100.00,SW,216,14.0,24.0,22,0.00,,,0.00,765.000000,,2013-04-28 00:11:00,
2013-04-27 18:32:00,61.0,29.0,-100.00,WSW,242,9.0,24.0,29,-99.99,,,0.00,236.000000,,2013-04-28 01:32:00,
2013-04-27 18:42:00,61.0,29.0,-100.00,WSW,242,9.0,24.0,29,-99.99,,,0.00,236.000000,,2013-04-28 01:42:00,
2013-04-27 18:52:00,61.0,29.0,-100.00,WSW,242,9.0,24.0,29,-99.99,,,0.00,236.000000,,2013-04-28 01:52:00,
2013-04-27 19:01:00,61.0,29.0,-100.00,WSW,242,9.0,24.0,29,-99.99,,,0.00,236.000000,,2013-04-28 02:01:00,
2013-04-27 19:11:00,61.0,29.0,-100.00,WSW,242,9.0,24.0,29,-99.99,,,0.00,236.000000,,2013-04-28 02:11:00,
2013-04-27 19:32:00,60.0,28.0,-100.00,WSW,254,7.0,25.0,29,0.00,,,0.00,95.000000,,2013-04-28 02:32:00,
2013-04-27 19:42:00,60.0,28.0,-100.00,WSW,254,7.0,25.0,29,0.00,,,0.00,95.000000,,2013-04-28 02:42:00,
2013-04-27 19:52:00,60.0,28.0,-100.00,WSW,254,7.0,25.0,29,0.00,,,0.00,95.000000,,2013-04-28 02:52:00,
2013-04-27 20:01:00,60.0,28.0,-100.00,WSW,254,7.0,25.0,29,0.00,,,0.00,95.000000,,2013-04-28 03:01:00,
2013-04-27 20:11:00,60.0,28.0,-100.00,WSW,254,7.0,25.0,29,0.00,,,0.00,95.000000,,2013-04-28 03:11:00,
2013-04-27 20:43:00,55.0,25.0,-100.00,West,281,11.0,17.0,31,0.00,,,0.00,38.000000,,2013-04-28 03:43:00,
2013-04-27 20:53:00,55.0,25.0,-100.00,West,281,11.0,17.0,31,0.00,,,0.00,38.000000,,2013-04-28 03:53:00,
2013-04-27 21:02:00,55.0,25.0,-100.00,West,281,11.0,17.0,31,0.00,,,0.00,38.000000,,2013-04-28 04:02:00,
2013-04-27 21:13:00,55.0,25.0,-100.00,West,281,11.0,17.0,31,0.00,,,0.00,38.000000,,2013-04-28 04:13:00,
2013-04-27 21:32:00,52.0,25.0,-100.00,NNE,12,3.0,17.0,35,0.00,,,0.00,0.000000,,2013-04-28 04:32:00,
2013-04-27 21:43:00,52.0,25.0,-100.00,NNE,12,3.0,17.0,35,0.00,,,0.00,0.000000,,2013-04-28 04:43:00,
2013-04-27 21:53:00,52.0,25.0,-100.00,NNE,12,3.0,17.0,35,0.00,,,0.00,0.000000,,2013-04-28 04:53:00,
2013-04-27 22:02:00,52.0,25.0,-100.00,NNE,12,3.0,17.0,35,0.00,,,0.00,0.000000,,2013-04-28 05:02:00,
2013-04-27 22:12:00,52.0,25.0,-100.00,NNE,12,3.0,17.0,35,0.00,,,0.00,0.000000,,2013-04-28 05:12:00,
2013-04-27 22:32:00,49.0,25.0,-100.00,WSW,242,5.0,9.0,38,0.00,,,0.00,0.000000,,2013-04-28 05:32:00,
2013-04-27 22:42:00,49.0,25.0,-100.00,WSW,242,5.0,9.0,38,0.00,,,0.00,0.000000,,2013-04-28 05:42:00,
2013-04-27 22:52:00,49.0,25.0,-100.00,WSW,242,5.0,9.0,38,0.00,,,0.00,0.000000,,2013-04-28 05:52:00,
2013-04-27 23:01:00,49.0,25.0,-100.00,WSW,242,5.0,9.0,38,0.00,,,0.00,0.000000,,2013-04-28 06:01:00,
2013-04-27 23:12:00,49.0,25.0,-100.00,WSW,242,5.0,9.0,38,0.00,,,0.00,0.000000,,2013-04-28 06:12:00,
2013-04-27 23:32:00,49.0,26.0,-100.00,WSW,246,4.0,9.0,41,0.00,,,-99.99,0.000000,,2013-04-28 06:32:00,
2013-04-27 23:42:00,49.0,26.0,-100.00,WSW,246,4.0,9.0,41,0.00,,,-99.99,0.000000,,2013-04-28 06:42:00,
2013-04-27 23:52:00,49.0,26.0,-100.00,WSW,246,4.0,9.0,41,0.00,,,-99.99,0.000000,,2013-04-28 06:52:00,